STARLINK-1568, 46080

Orbit data source: Space-Track

STARLINK-1568, 46080 is a payload satellite owned by SpaceX/Seattle (US) in LEO that was launched on Fri, 07 Aug 2020 UTC via an FALCON 9 launch vehicle from the Air Force Eastern Test Range (AFETR). Payload-class satellites include a variety of spacecraft equipped with specific instruments for various scientific and technological missions. These include communications satellites like Starlink; space stations such as the ISS; scientific satellites like the Hubble; Earth observation satellites from companies like Planet Labs, Umbra, and HawkEye 360; GPS; miniature CubeSats for education and research; and military/defense satellites.

Loading next visibility...
Identifier
46080, 2020-055BF
Orbit
LEO
Country
Flag of USUS
Related business
Manufacturer
SpaceX/Seattle
Mission
Partially operational Commercial Communications
Bus & Motor
STARLINK, Unknown motor
Mass
260 kg wet, ~248 kg dry
Launch date (UTC)
2020-08-07 (6 years ago)
Launch vehicle
FALCON 9
Launch site
Air Force Eastern Test Range (AFETR)
Object type
Payload
Rocket body
Debris
Shape & HBR
Box + 1 Pan, 10.1 m
Radar Cross Section
13.562 m², Large (>1 m²)

Expand to show TLE details & history
Last TLE update: 8 hours ago

TLE from 8 hours ago
0 STARLINK-1568
1 46080U 20055BF  26170.57747112  .00038898  00000-0  56811-3 0  9990
2 46080  53.0558 263.5971 0002978  61.2849 298.8461 15.55286582326001
Epoch: 2026-06-19T13:51Z
TLE epoch observation values (Epoch: 2026-06-19T13:51:33.504Z)
Latitude
0.00002°
Longitude
147.90307°
Altitude
401.244 km
Speed
7.672 km/s
True Right ascension
17h 34m 23s
True Declination
0° 00' 00"
Sunlit
Object was in full shadow at epoch
Visualization orbit readout
Latitude
Unknown
Longitude
Unknown
Altitude
Unknown
Speed
Unknown
Apparent Right ascension
Unknown
Apparent Declination
Unknown
Sunlit
N/A
Visualization observer readout
Local Sidereal Time
08:45:48
Azimuth
Unknown
Elevation
Unknown
Doppler factor
Unknown
Orbital elements
Apogee altitude
403.615 km
Perigee altitude
399.577 km
Semi-major axis
6,779.733 km
Eccentricity
0.0003
Inclination
53.0558°
RAAN
263.5971°
Arg. of periapsis
61.2849°
True anomaly
298.8162°
Mean anomaly
298.8461°
Eccentric anomaly
298.83115°
Mean motion
3.88798 °/min
Orbital period
92.59 mins
BSTAR
0.00056811
Loading maneuver chart data...
Computing Atmospheric mass density...
Loading historical data...
Loading historical data...
Loading historical data...
Loading historical data...
Loading historical data...
Loading historical data...
Loading historical data...

Documentation

Showing up to 5 results
|